Location: Newark
(25.6108°S, 54.5803°W)
Time: 07:52:16
(UTC+00:00)

Courier 1B - Pass Details

Date: 02 November 2020
Orbit: 962 x 1209 km, 28.3° (Epoch: 02 December)

Event Time Altitude Azimuth Distance (km) Brightness Sun altitude
Rises 21:36:02 0° 322° (NW) 3,699 10.9 3.4°
Reaches altitude 10° 21:39:02 10° 333° (NNW) 2,786 10.1 2.7°
Maximum altitude 21:44:42 28° 30° (NNE) 1,844 8.6 1.5°
Drops below altitude 10° 21:50:40 10° 86° (E) 2,949 9.4 0.2°
Sets 21:53:55 0° 97° (E) 3,953 10.1 -0.5°
